Weather History for Kaiser, MO

Change the Weather History Date:

Saturday, January 19, 2013

  Actual Average Record
Temperature  
Mean Temperature 52 °F -  
Max Temperature 62 °F 39 °F 68 °F (2006)
Min Temperature 42 °F 21 °F 6 °F (2008)
Degree Days  
Heating Degree Days 13    
Growing Degree Days 2 (Base 50)    
Moisture  
Dew Point 29 °F    
Average Humidity 43    
Maximum Humidity 62    
Minimum Humidity 30    
Precipitation  
Precipitation 0.00 in - - ()
Sea Level Pressure  
Sea Level Pressure 30.10 in    
Wind  
Wind Speed 11 mph (WSW)    
Max Wind Speed 20 mph    
Max Gust Speed 33 mph    
Visibility 10 miles    
Events      
Averages and records for this station are not official NWS values.
T = Trace of Precipitation, MM = Missing Value Source: NWS Daily Summary

Daily Weather History Graph

Daily Weather History Graph

Search for Another Location

Airport:

Trip Planner

Search our weather history database for the weather conditions in past years. The results will help you decide how hot, cold, wet, or windy it might be!

Date:

Astronomy

Jan. 19, 2013 Rise Set
Actual Time 7:23 AM CST 5:18 PM CST
Civil Twilight 6:54 AM CST 5:47 PM CST
Nautical Twilight 6:22 AM CST 6:19 PM CST
Astronomical Twilight 5:51 AM CST 6:51 PM CST
Moon 11:44 AM CST (1/19) 12:59 AM CST (1/19)
Length of Visible Light 10h 52m
Length of Day
9h 55m
First Quarter, 57% of the Moon is Illuminated
Jan 19
First Quarter
Jan 26
Full
Feb 3
Last Quarter
Feb 10
New
Feb 17
First Quarter

Hourly Weather History & Observations

Time (CST) Temp. Windchill Dew Point Humidity Pressure Visibility Wind Dir Wind Speed Gust Speed Precip Events Conditions
12:15 AM 44.6 °F 38.8 °F 24.8 °F 46% 30.16 in 10.0 mi SW 11.5 mph - N/A   Unknown
12:35 AM 44.6 °F 39.2 °F 24.8 °F 46% 30.16 in 10.0 mi SSW 10.4 mph 17.3 mph N/A   Unknown
12:55 AM 44.6 °F 39.2 °F 24.8 °F 46% 30.15 in 10.0 mi SSW 10.4 mph - N/A   Unknown
1:15 AM 44.6 °F 39.7 °F 24.8 °F 46% 30.15 in 10.0 mi SW 9.2 mph - N/A   Unknown
1:35 AM 44.6 °F 39.2 °F 24.8 °F 46% 30.15 in 10.0 mi SW 10.4 mph - N/A   Unknown
1:55 AM 44.6 °F 39.7 °F 24.8 °F 46% 30.15 in 10.0 mi SW 9.2 mph 16.1 mph N/A   Unknown
2:15 AM 44.6 °F 39.7 °F 24.8 °F 46% 30.15 in 10.0 mi SW 9.2 mph - N/A   Unknown
2:35 AM 42.8 °F 38.0 °F 24.8 °F 49% 30.14 in 10.0 mi SW 8.1 mph - N/A   Unknown
2:55 AM 42.8 °F 37.5 °F 26.6 °F 53% 30.13 in 10.0 mi SW 9.2 mph - N/A   Unknown
3:15 AM 44.6 °F 39.2 °F 26.6 °F 49% 30.13 in 10.0 mi SW 10.4 mph 17.3 mph N/A   Unknown
3:35 AM 44.6 °F 39.2 °F 26.6 °F 49% 30.12 in 10.0 mi SW 10.4 mph - N/A   Unknown
3:55 AM 44.6 °F 39.2 °F 26.6 °F 49% 30.12 in 10.0 mi SW 10.4 mph 18.4 mph N/A   Unknown
4:15 AM 44.6 °F 39.2 °F 26.6 °F 49% 30.11 in 10.0 mi SW 10.4 mph 17.3 mph N/A   Unknown
4:35 AM 44.6 °F 39.2 °F 26.6 °F 49% 30.11 in 10.0 mi SW 10.4 mph - N/A   Unknown
4:55 AM 44.6 °F 38.1 °F 26.6 °F 49% 30.10 in 10.0 mi SW 13.8 mph 19.6 mph N/A   Unknown
5:15 AM 44.6 °F 38.1 °F 26.6 °F 49% 30.10 in 10.0 mi SW 13.8 mph - N/A   Unknown
5:35 AM 44.6 °F 39.2 °F 26.6 °F 49% 30.10 in 10.0 mi SW 10.4 mph - N/A   Unknown
5:55 AM 44.6 °F 40.2 °F 26.6 °F 49% 30.10 in 10.0 mi SW 8.1 mph 16.1 mph N/A   Unknown
6:15 AM 44.6 °F 39.7 °F 26.6 °F 49% 30.10 in 10.0 mi SW 9.2 mph 17.3 mph N/A   Unknown
6:35 AM 44.6 °F 39.2 °F 26.6 °F 49% 30.09 in 10.0 mi SW 10.4 mph - N/A   Unknown
6:55 AM 44.6 °F 38.8 °F 26.6 °F 49% 30.09 in 10.0 mi SW 11.5 mph 17.3 mph N/A   Unknown
7:15 AM 44.6 °F 38.4 °F 26.6 °F 49% 30.08 in 10.0 mi SW 12.7 mph 18.4 mph N/A   Unknown
7:35 AM 44.6 °F 36.6 °F 26.6 °F 49% 30.07 in 10.0 mi SW 19.6 mph 24.2 mph N/A   Unknown
7:55 AM 44.6 °F 37.4 °F 28.4 °F 53% 30.07 in 10.0 mi SW 16.1 mph 21.9 mph N/A   Unknown
8:15 AM 46.4 °F 39.0 °F 28.4 °F 50% 30.07 in 10.0 mi SW 19.6 mph 24.2 mph N/A   Unknown
8:35 AM 46.4 °F 39.8 °F 28.4 °F 50% 30.07 in 10.0 mi SW 16.1 mph 25.3 mph N/A   Unknown
8:55 AM 48.2 °F - 28.4 °F 46% 30.07 in 10.0 mi WSW 19.6 mph 24.2 mph N/A   Unknown
9:15 AM 50.0 °F - 28.4 °F 43% 30.08 in 10.0 mi WSW 12.7 mph 19.6 mph N/A   Unknown
9:35 AM 51.8 °F - 30.2 °F 44% 30.08 in 10.0 mi WSW 13.8 mph 28.8 mph N/A   Unknown
9:55 AM 53.6 °F - 30.2 °F 41% 30.09 in 10.0 mi WSW 15.0 mph 20.7 mph N/A   Unknown
10:15 AM 53.6 °F - 30.2 °F 41% 30.09 in 10.0 mi WSW 12.7 mph 26.5 mph N/A   Unknown
10:35 AM 55.4 °F - 30.2 °F 38% 30.08 in 10.0 mi WSW 11.5 mph 27.6 mph N/A   Unknown
10:55 AM 55.4 °F - 30.2 °F 38% 30.07 in 10.0 mi West 13.8 mph 33.4 mph N/A   Unknown
11:15 AM 57.2 °F - 30.2 °F 36% 30.06 in 10.0 mi West 15.0 mph 27.6 mph N/A   Unknown
11:35 AM 57.2 °F - 30.2 °F 36% 30.05 in 10.0 mi West 12.7 mph 21.9 mph N/A   Unknown
11:55 AM 57.2 °F - 32.0 °F 38% 30.04 in 10.0 mi West 17.3 mph 25.3 mph N/A   Unknown
12:15 PM 59.0 °F - 32.0 °F 36% 30.03 in 10.0 mi WSW 12.7 mph 21.9 mph N/A   Unknown
12:35 PM 60.8 °F - 32.0 °F 34% 30.03 in 10.0 mi West 15.0 mph 20.7 mph N/A   Unknown
12:55 PM 60.8 °F - 30.2 °F 31% 30.02 in 10.0 mi WSW 15.0 mph 23.0 mph N/A   Unknown
1:15 PM 60.8 °F - 30.2 °F 31% 30.02 in 10.0 mi WSW 13.8 mph 24.2 mph N/A   Unknown
1:35 PM 60.8 °F - 32.0 °F 34% 30.02 in 10.0 mi WSW 16.1 mph 21.9 mph N/A   Unknown
1:55 PM 60.8 °F - 30.2 °F 31% 30.01 in 10.0 mi West 17.3 mph 25.3 mph N/A   Unknown
2:15 PM 60.8 °F - 30.2 °F 31% 30.01 in 10.0 mi West 16.1 mph 25.3 mph N/A   Unknown
2:35 PM 62.6 °F - 30.2 °F 30% 30.01 in 10.0 mi West 12.7 mph 21.9 mph N/A   Unknown
2:55 PM 62.6 °F - 30.2 °F 30% 30.01 in 10.0 mi West 18.4 mph 21.9 mph N/A   Unknown
3:15 PM 62.6 °F - 30.2 °F 30% 30.02 in 10.0 mi West 13.8 mph 21.9 mph N/A   Unknown
3:35 PM 62.6 °F - 30.2 °F 30% 30.02 in 10.0 mi West 12.7 mph 18.4 mph N/A   Unknown
3:55 PM 62.6 °F - 30.2 °F 30% 30.02 in 10.0 mi West 13.8 mph 21.9 mph N/A   Unknown
4:15 PM 60.8 °F - 30.2 °F 31% 30.03 in 10.0 mi West 10.4 mph 18.4 mph N/A   Unknown
4:35 PM 60.8 °F - 30.2 °F 31% 30.05 in 10.0 mi West 9.2 mph 18.4 mph N/A   Unknown
4:55 PM 59.0 °F - 30.2 °F 34% 30.05 in 10.0 mi West 9.2 mph - N/A   Unknown
5:15 PM 57.2 °F - 30.2 °F 36% 30.06 in 10.0 mi West 8.1 mph - N/A   Unknown
5:35 PM 57.2 °F - 30.2 °F 36% 30.07 in 10.0 mi West 6.9 mph - N/A   Unknown
5:55 PM 55.4 °F - 30.2 °F 38% 30.08 in 10.0 mi West 6.9 mph - N/A   Unknown
6:15 PM 55.4 °F - 30.2 °F 38% 30.09 in 10.0 mi West 5.8 mph - N/A   Unknown
6:35 PM 53.6 °F - 30.2 °F 41% 30.10 in 10.0 mi West 5.8 mph - N/A   Unknown
6:55 PM 53.6 °F - 30.2 °F 41% 30.11 in 10.0 mi West 4.6 mph - N/A   Unknown
7:15 PM 51.8 °F - 30.2 °F 44% 30.12 in 10.0 mi West 4.6 mph - N/A   Unknown
7:35 PM 50.0 °F - 30.2 °F 47% 30.12 in 10.0 mi West 4.6 mph - N/A   Unknown
7:55 PM 50.0 °F - 32.0 °F 50% 30.13 in 10.0 mi WSW 5.8 mph - N/A   Unknown
8:15 PM 48.2 °F - 30.2 °F 50% 30.14 in 10.0 mi West 3.5 mph - N/A   Unknown
8:35 PM 46.4 °F 44.3 °F 30.2 °F 53% 30.14 in 10.0 mi West 4.6 mph - N/A   Unknown
8:55 PM 46.4 °F 45.2 °F 30.2 °F 53% 30.14 in 10.0 mi West 3.5 mph - N/A   Unknown
9:15 PM 46.4 °F 43.5 °F 32.0 °F 57% 30.15 in 10.0 mi West 5.8 mph - N/A   Unknown
9:35 PM 46.4 °F 42.9 °F 33.8 °F 62% 30.16 in 10.0 mi WNW 6.9 mph - N/A   Unknown
9:55 PM 48.2 °F - 30.2 °F 50% 30.18 in 10.0 mi NNW 5.8 mph - N/A   Unknown
10:15 PM 46.4 °F 43.5 °F 28.4 °F 50% 30.19 in 10.0 mi North 5.8 mph - N/A   Unknown
10:35 PM 48.2 °F - 28.4 °F 46% 30.20 in 10.0 mi NNW 9.2 mph 18.4 mph N/A   Unknown
10:55 PM 46.4 °F 42.4 °F 26.6 °F 46% 30.21 in 10.0 mi NNW 8.1 mph - N/A   Unknown
11:15 PM 46.4 °F 42.9 °F 28.4 °F 50% 30.22 in 10.0 mi North 6.9 mph - N/A   Unknown
11:35 PM 46.4 °F 42.9 °F 26.6 °F 46% 30.22 in 10.0 mi North 6.9 mph - N/A   Unknown
11:55 PM 46.4 °F 42.9 °F 26.6 °F 46% 30.22 in 10.0 mi North 6.9 mph - N/A   Unknown